Regional Weather Roundup
Issued by NWS Cleveland, OH

Home | Current Version | Previous Version | Graphics & Text | Print | Product List | Glossary On
Versions: 1 2 3 4 5 6 7 8 9 10 11 12 13 14 15 16 17 18 19 20 21 22 23 24 25 26 27 28 29 30 31 32 33 34 35 36 37 38 39 40 41 42 43 44 45 46 47 48 49 50
000
ASUS41 KCLE 241100
RWRCLE
OHIO REGIONAL WEATHER ROUNDUP
NATIONAL WEATHER SERVICE WILMINGTON, OH
700 AM EDT THU APR 24 2014

NOTE: "FAIR" INDICATES FEW OR NO CLOUDS BELOW 12,000 FEET WITH NO
SIGNIFICANT WEATHER AND/OR OBSTRUCTIONS TO VISIBILITY.

OHZ001>008-015>018-024>027-034-035-043-044-241200-
   NORTHWEST OHIO

CITY           SKY/WX    TMP DP  RH WIND       PRES   REMARKS
DEFIANCE       CLOUDY    44  32  62 E6        30.14R
FINDLAY        MOCLDY    43  33  68 E8        30.13R
TOLEDO EXPRESS MOCLDY    42  25  50 E7        30.15R
TOLEDO METCALF PTCLDY    42  29  59 E5        30.17R
LIMA           MOCLDY    45  31  58 SE9       30.12R
$$

OHZ009>014-019>023-028>033-038-089-241200-
   NORTHEAST OHIO

CITY           SKY/WX    TMP DP  RH WIND       PRES   REMARKS
CLE-HOPKINS    MOCLDY    39  27  62 CALM      30.18R
CLE-LAKEFRONT  PTCLDY    39  23  52 CALM      30.15R
CUY CO. ARPT   MOCLDY    32  27  80 SE5       30.16  WCI  27
LORAIN-ELYRIA  CLOUDY    39  33  79 NE3       30.17R
ASHTABULA      CLEAR     24  20  84 CALM      30.16R
AKRON-CANTON   CLOUDY    37  23  56 CALM      30.14R
WOOSTER        NOT AVBL
MANSFIELD      CLOUDY    39  18  42 CALM      30.14R
YOUNGSTOWN     PTCLDY    30  21  69 CALM      30.14R
$$

OHZ042-051>053-060>062-070>072-077>081-241200-
  SOUTHWEST OHIO

CITY           SKY/WX    TMP DP  RH WIND       PRES   REMARKS
CINC-COVINGTON MOCLDY    48  33  56 E10       30.08R
CINC-LUNKEN    MOCLDY    47  34  60 E7        30.11R
HAMILTON       CLOUDY    48  34  58 E9        30.11R
DAYTON         NOT AVBL
WRIGHT-PAT AFB MOCLDY    45  27  50 E7        30.12R
DAYTON GENERAL CLOUDY    45  28  51 E8        30.09S
WILMINGTON     CLOUDY    42  32  67 E6        30.12R
$$

OHZ036-037-039>041-045>050-054>059-063>069-073>076-082>088-241200-
  CENTRAL AND SOUTHEAST OHIO

CITY           SKY/WX    TMP DP  RH WIND       PRES   REMARKS
COLUMBUS       CLOUDY    44  23  43 E3        30.14R
OSU AIRPORT    CLOUDY    42  28  57 E5        30.14R
BOLTON FIELD   NOT AVBL
RICKENBACK AFB NOT AVBL
NEWARK         MOCLDY    41  28  60 NE3       30.14R
MARION         CLOUDY    41  22  46 E6        30.15R
LANCASTER      PTCLDY    37  27  67 CALM      30.14R
ZANESVILLE     CLOUDY    37  30  75 CALM      30.14R
NEW PHILLY     CLOUDY    34  29  82 CALM      30.16R
$$



USA.gov is the U.S. government's official web portal to all federal, state and local government web resources and services.